Location: Asheville, NC
(35.6000°N, 82.5500°W)
Time: 01:40:29
(UTC-04:00)

AO-7 - Pass Details

Date: 08 January 2018
Orbit: 1439 x 1459 km, 101.7° (Epoch: 25 April)

Event Time Altitude Azimuth Distance (km) Brightness Sun altitude
Rises 05:04:20 0° 10° (N) 4,571 ? -31.1°
Reaches altitude 10° 05:07:15 10° 4° (N) 3,589 ? -30.5°
Enters shadow 05:12:34 37° 335° (NNW) 2,125 ? -29.4°
